FAMM

Mmabatho International Airport

Airport
ICAO code
FAMM
IATA Code
MBD
Summary
ICAO Region
AFI
ICAO Territory
Location

, North-West

Serving
Mafeking
Elevation
4181 ft
Coordinates
25° 47' 54" S , 25° 32' 53" E
Metar
FAMM 151600Z 26004KT CAVOK 18/M02 Q1026 NOSIG

Runways

Designator Length Width Surface Rops
4/22 4620 45 ASP Yes/Yes

Airport map

Aerial View

SKYbrary Partners:

Safety knowledge contributed by: